| time (UTC) | temp F | wind direction | speed knots | gust knots | rain 1hr in | rain 24hr in | rain mn in | humidity % | barometer mb |
| 20260509124509 | 51 | 201 | 3.5 | 0.0 | 0.00 | 0.00 | 0.00 | 69 | 997.3 |
| 20260509123012 | 50 | 221 | 3.5 | 0.0 | 0.00 | 0.00 | 0.00 | 69 | 997.4 |
| 20260509121504 | 50 | 189 | 2.6 | 0.0 | 0.00 | 0.00 | 0.00 | 69 | 997.6 |
| 20260509120004 | 50 | 124 | 3.5 | 0.0 | 0.00 | 0.00 | 0.00 | 67 | 997.6 |
| 20260509114501 | 51 | 165 | 3.5 | 0.0 | 0.00 | 0.00 | 0.00 | 67 | 997.9 |
| 20260509113002 | 51 | 207 | 2.6 | 0.0 | 0.00 | 0.00 | 0.00 | 67 | 997.8 |
| 20260509111612 | 51 | 128 | 2.6 | 0.0 | 0.00 | 0.00 | 0.00 | 67 | 997.9 |
| 20260509110058 | 51 | 181 | 3.5 | 0.0 | 0.00 | 0.00 | 0.00 | 66 | 998.4 |
| 20260509104610 | 51 | 259 | 2.6 | 0.0 | 0.00 | 0.00 | 0.00 | 66 | 998.6 |
| 20260509103110 | 50 | 252 | 1.7 | 0.0 | 0.00 | 0.00 | 0.00 | 64 | 998.6 |
| 20260509101556 | 49 | 150 | 0.9 | 0.0 | 0.00 | 0.00 | 0.00 | 62 | 998.3 |
| 20260509100051 | 49 | 137 | 0.9 | 0.0 | 0.00 | 0.00 | 0.00 | 61 | 998.6 |
| 20260509094548 | 49 | 130 | 1.7 | 0.0 | 0.00 | 0.00 | 0.00 | 58 | 998.8 |
| 20260509093047 | 49 | 114 | 1.7 | 0.0 | 0.00 | 0.00 | 0.00 | 55 | 999.4 |
| 20260509091545 | 49 | 104 | 1.7 | 0.0 | 0.00 | 0.00 | 0.00 | 47 | 999.6 |
| 20260509090051 | 49 | 236 | 1.7 | 0.0 | 0.00 | 0.00 | 0.00 | 45 | 1000.0 |
| 20260509084539 | 50 | 216 | 2.6 | 0.0 | 0.00 | 0.00 | 0.00 | 42 | 1000.4 |
| 20260509083036 | 50 | 204 | 0.0 | 0.0 | 0.00 | 0.00 | 0.00 | 38 | 1000.3 |
| 20260509081547 | 50 | 183 | 1.7 | 0.0 | 0.00 | 0.00 | 0.00 | 37 | 1000.4 |
| 20260509080034 | 51 | 172 | 1.7 | 0.0 | 0.00 | 0.00 | 0.00 | 36 | 1000.6 |
| 20260509074529 | 51 | 195 | 1.7 | 0.0 | 0.00 | 0.00 | 0.00 | 38 | 1000.9 |
| 20260509073041 | 51 | 181 | 1.7 | 0.0 | 0.00 | 0.00 | 0.00 | 38 | 1001.1 |
| 20260509071528 | 51 | 197 | 1.7 | 0.0 | 0.00 | 0.00 | 0.00 | 39 | 1001.4 |
| 20260509070037 | 51 | 229 | 1.7 | 0.0 | 0.00 | 0.00 | 0.00 | 38 | 1002.0 |
| 20260509064524 | 51 | 210 | 2.6 | 0.0 | 0.00 | 0.00 | 0.00 | 39 | 1002.1 |
| 20260509063042 | 51 | 210 | 1.7 | 0.0 | 0.00 | 0.00 | 0.00 | 40 | 1002.1 |
| 20260509061518 | 51 | 118 | 1.7 | 0.0 | 0.00 | 0.00 | 0.00 | 41 | 1002.2 |
| 20260509060020 | 51 | 185 | 0.9 | 0.0 | 0.00 | 0.00 | 0.00 | 42 | 1002.6 |
| 20260509054514 | 52 | 166 | 1.7 | 0.0 | 0.00 | 0.00 | 0.00 | 41 | 1002.6 |
| 20260509053020 | 52 | 247 | 1.7 | 0.0 | 0.00 | 0.00 | 0.00 | 44 | 1002.9 |
| 20260509051511 | 51 | 229 | 2.6 | 0.0 | 0.00 | 0.00 | 0.00 | 41 | 1003.2 |
| 20260509050009 | 51 | 220 | 0.9 | 0.0 | 0.00 | 0.00 | 0.00 | 40 | 1003.4 |
| 20260509044511 | 52 | 227 | 1.7 | 0.0 | 0.00 | 0.00 | 0.00 | 40 | 1003.5 |
| 20260509043005 | 52 | 248 | 1.7 | 0.0 | 0.00 | 0.00 | 0.00 | 39 | 1003.6 |
| 20260509041504 | 52 | 189 | 0.0 | 0.0 | 0.00 | 0.00 | 0.00 | 39 | 1003.7 |
| 20260509040002 | 52 | 195 | 0.0 | 0.0 | 0.00 | 0.00 | 0.00 | 38 | 1003.8 |
| 20260509034501 | 52 | 234 | 0.9 | 0.0 | 0.00 | 0.00 | 0.00 | 38 | 1004.1 |
| 20260509033100 | 53 | 231 | 0.9 | 0.0 | 0.00 | 0.00 | 0.00 | 38 | 1004.1 |
| 20260509031559 | 53 | 199 | 0.9 | 0.0 | 0.00 | 0.00 | 0.00 | 38 | 1004.3 |
| 20260509030058 | 53 | 224 | 0.9 | 0.0 | 0.00 | 0.00 | 0.00 | 37 | 1004.5 |
| 20260509024602 | 54 | 229 | 0.9 | 0.0 | 0.00 | 0.00 | 0.00 | 37 | 1004.6 |
| 20260509023100 | 54 | 234 | 0.9 | 0.0 | 0.00 | 0.00 | 0.00 | 37 | 1004.7 |
| 20260509021557 | 55 | 220 | 0.9 | 0.0 | 0.00 | 0.00 | 0.00 | 36 | 1004.7 |
| 20260509020059 | 55 | 248 | 1.7 | 0.0 | 0.00 | 0.00 | 0.00 | 36 | 1004.8 |
| 20260509014555 | 55 | 272 | 1.7 | 0.0 | 0.00 | 0.00 | 0.00 | 36 | 1004.7 |
| 20260509013058 | 55 | 214 | 0.9 | 0.0 | 0.00 | 0.00 | 0.00 | 36 | 1004.7 |
| 20260509011555 | 55 | 216 | 0.9 | 0.0 | 0.00 | 0.00 | 0.00 | 35 | 1004.6 |
| 20260509010054 | 56 | 256 | 2.6 | 0.0 | 0.00 | 0.00 | 0.00 | 35 | 1004.5 |
| 20260509004605 | 56 | 252 | 1.7 | 0.0 | 0.00 | 0.00 | 0.00 | 35 | 1004.4 |
| 20260509003052 | 56 | 265 | 2.6 | 0.0 | 0.00 | 0.00 | 0.00 | 33 | 1004.7 |
| 20260509001550 | 57 | 239 | 3.5 | 0.0 | 0.00 | 0.00 | 0.00 | 33 | 1004.5 |
| 20260509000049 | 57 | 245 | 1.7 | 0.0 | 0.00 | 0.00 | 0.00 | 33 | 1004.6 |
| 20260508234553 | 57 | 291 | 3.5 | 0.0 | 0.00 | 0.00 | 0.00 | 32 | 1004.8 |
| 20260508233051 | 57 | 291 | 3.5 | 0.0 | 0.00 | 0.00 | 0.00 | 32 | 1004.8 |
| 20260508231546 | 57 | 284 | 4.3 | 0.0 | 0.00 | 0.00 | 0.00 | 32 | 1004.9 |
| 20260508230046 | 57 | 280 | 5.2 | 0.0 | 0.00 | 0.00 | 0.00 | 31 | 1004.9 |
| 20260508224544 | 57 | 228 | 5.2 | 0.0 | 0.00 | 0.00 | 0.00 | 31 | 1004.9 |
| 20260508223044 | 57 | 243 | 4.3 | 0.0 | 0.00 | 0.00 | 0.00 | 32 | 1005.0 |
| 20260508221542 | 58 | 243 | 7.0 | 0.0 | 0.00 | 0.00 | 0.00 | 31 | 1005.2 |
| 20260508220041 | 58 | 225 | 6.1 | 0.0 | 0.00 | 0.00 | 0.00 | 28 | 1005.3 |
| 20260508214541 | 58 | 269 | 7.0 | 0.0 | 0.00 | 0.00 | 0.00 | 29 | 1005.3 |
| 20260508213040 | 59 | 264 | 6.1 | 0.0 | 0.00 | 0.00 | 0.00 | 28 | 1005.4 |
| 20260508211538 | 59 | 248 | 7.0 | 0.0 | 0.00 | 0.00 | 0.00 | 28 | 1005.5 |
| 20260508210036 | 58 | 275 | 7.8 | 0.0 | 0.00 | 0.00 | 0.00 | 29 | 1005.5 |
| 20260508204536 | 58 | 210 | 7.8 | 0.0 | 0.00 | 0.00 | 0.00 | 29 | 1005.5 |
| 20260508203039 | 59 | 277 | 7.0 | 0.0 | 0.00 | 0.00 | 0.00 | 29 | 1005.7 |
| 20260508201534 | 58 | 293 | 7.0 | 0.0 | 0.00 | 0.00 | 0.00 | 28 | 1005.7 |
| 20260508200034 | 58 | 271 | 8.7 | 0.0 | 0.00 | 0.00 | 0.00 | 27 | 1006.2 |
| 20260508194531 | 57 | 199 | 10.4 | 0.0 | 0.00 | 0.00 | 0.00 | 28 | 1006.3 |
| 20260508193030 | 58 | 240 | 7.0 | 0.0 | 0.00 | 0.00 | 0.00 | 29 | 1006.4 |
| 20260508191535 | 58 | 239 | 8.7 | 0.0 | 0.00 | 0.00 | 0.00 | 32 | 1006.5 |
| 20260508190034 | 57 | 258 | 10.4 | 0.0 | 0.00 | 0.00 | 0.00 | 29 | 1006.7 |
| 20260508184529 | 58 | 267 | 7.8 | 0.0 | 0.00 | 0.00 | 0.00 | 29 | 1006.8 |
| 20260508183028 | 58 | 253 | 6.1 | 0.0 | 0.00 | 0.00 | 0.00 | 28 | 1006.9 |
| 20260508181531 | 57 | 287 | 7.8 | 0.0 | 0.00 | 0.00 | 0.00 | 29 | 1007.2 |
| 20260508180019 | 57 | 310 | 7.0 | 0.0 | 0.00 | 0.00 | 0.00 | 30 | 1007.2 |
| 20260508174517 | 56 | 258 | 7.8 | 0.0 | 0.00 | 0.00 | 0.00 | 31 | 1007.5 |
| 20260508173015 | 55 | 246 | 8.7 | 0.0 | 0.00 | 0.00 | 0.00 | 31 | 1007.7 |
| 20260508171518 | 54 | 247 | 7.8 | 0.0 | 0.00 | 0.00 | 0.00 | 33 | 1007.8 |
| 20260508170012 | 53 | 278 | 7.8 | 0.0 | 0.00 | 0.00 | 0.00 | 34 | 1008.3 |
| 20260508164510 | 54 | 242 | 8.7 | 0.0 | 0.00 | 0.00 | 0.00 | 35 | 1008.3 |
| 20260508163013 | 54 | 285 | 7.8 | 0.0 | 0.00 | 0.00 | 0.00 | 35 | 1008.4 |
| 20260508161505 | 53 | 270 | 6.1 | 0.0 | 0.00 | 0.00 | 0.00 | 36 | 1008.6 |
| 20260508160005 | 52 | 240 | 6.1 | 0.0 | 0.00 | 0.00 | 0.00 | 36 | 1008.9 |
| 20260508154504 | 52 | 290 | 4.3 | 0.0 | 0.00 | 0.00 | 0.00 | 39 | 1008.9 |
| 20260508153002 | 51 | 275 | 7.8 | 0.0 | 0.00 | 0.00 | 0.00 | 37 | 1009.0 |
| 20260508151601 | 51 | 276 | 7.0 | 0.0 | 0.00 | 0.00 | 0.00 | 38 | 1009.0 |
| 20260508150057 | 50 | 285 | 5.2 | 0.0 | 0.00 | 0.00 | 0.00 | 41 | 1009.0 |
| 20260508144555 | 50 | 310 | 5.2 | 0.0 | 0.00 | 0.00 | 0.00 | 44 | 1009.2 |
| 20260508143054 | 49 | 306 | 7.0 | 0.0 | 0.00 | 0.00 | 0.00 | 44 | 1009.4 |
| 20260508141612 | 49 | 278 | 5.2 | 0.0 | 0.00 | 0.00 | 0.00 | 47 | 1009.4 |
| 20260508140046 | 47 | 252 | 6.1 | 0.0 | 0.00 | 0.00 | 0.00 | 52 | 1009.6 |
| 20260508134555 | 47 | 245 | 3.5 | 0.0 | 0.00 | 0.00 | 0.00 | 55 | 1009.6 |
| 20260508133040 | 46 | 289 | 5.2 | 0.0 | 0.00 | 0.00 | 0.00 | 61 | 1009.7 |
| 20260508131536 | 44 | 272 | 4.3 | 0.0 | 0.00 | 0.00 | 0.00 | 64 | 1009.9 |
| 20260508130033 | 43 | 283 | 3.5 | 0.0 | 0.00 | 0.00 | 0.00 | 68 | 1009.9 |